sat.trackr.live / text

‹ back to catalog

STARLINK-34381

NORAD 64282 · 2025-120AC

PAYLOAD ACTIVE UNKNOWN

§ Identity

Operator
Country
US
Launch date
2025-06-04
Launch site
AFWTR
Launch vehicle
Mass (kg)
RCS (m²)

Purposes: comms

External: N2YO · Heavens-Above · Gunter

§ Orbital elements

Epoch: 2026-05-25T02:25:05.652768Z

Period
94.11 min
Inclination
53.1572°
Eccentricity
0.0001416
Mean motion
15.30203537 rev/d
Perigee alt
474.2 km
Apogee alt
476.2 km
Semi-major
6,853.3 km
B*
4.8204e-4
RAAN
121.8622°
Arg perigee
108.0404°
Mean anomaly
252.0751°
Rev number
5,559

§ Raw data

STARLINK-343811 64282U 25120AC  26145.10075987  .00013946  00000+0  48204-3 0  99902 64282  53.1572 121.8622 0001416 108.0404 252.0751 15.30203537 55593

JSON: /api/v1/satellites/64282 · /tle

For live sub-satellite position, see the globe view (requires WebGL).

§ Visibility from observer

Set your observer location to see the next 7 days of passes ≥ 10°. The values pass through the URL so the page stays shareable.

No JS? Fill the form by hand. The geolocation button needs JavaScript.